Radiation Dose at Monitoring Post of Fukushima Daini Nuclear Power Station
Date,Time,MP-1(microSv/h),MP-2(microSv/h),MP-3(microSv/h),MP-4(microSv/h),MP-5(microSv/h),MP-6(microSv/h),MP-7(microSv/h),Wind Direction,Wind Velocity(m/s),Rain
2017/11/07,00:00,0.326,0.209,0.343,0.325,0.310,0.170,0.101,southwest,4.0,No
2017/11/07,00:10,0.327,0.210,0.344,0.326,0.310,0.169,0.102,southwest,5.9,No
2017/11/07,00:20,0.326,0.210,0.344,0.326,0.312,0.170,0.101,southwest,3.1,No
2017/11/07,00:30,0.326,0.209,0.343,0.325,0.312,0.169,0.101,south-southwest,3.1,No
2017/11/07,00:40,0.327,0.211,0.345,0.324,0.311,0.169,0.102,southwest,4.3,No
2017/11/07,00:50,0.328,0.210,0.343,0.324,0.310,0.170,0.102,southwest,4.5,No
2017/11/07,01:00,0.328,0.210,0.343,0.326,0.310,0.170,0.101,southwest,4.6,No
2017/11/07,01:10,0.328,0.212,0.345,0.325,0.312,0.170,0.101,southwest,4.5,No
2017/11/07,01:20,0.328,0.208,0.345,0.324,0.310,0.170,0.101,southwest,3.8,No
2017/11/07,01:30,0.325,0.209,0.343,0.326,0.312,0.170,0.101,southwest,3.7,No
2017/11/07,01:40,0.328,0.210,0.344,0.325,0.311,0.170,0.100,southwest,3.9,No
2017/11/07,01:50,0.328,0.211,0.344,0.325,0.311,0.169,0.102,southwest,3.8,No
2017/11/07,02:00,0.327,0.210,0.344,0.326,0.311,0.169,0.102,west-southwest,3.6,No
2017/11/07,02:10,0.328,0.209,0.345,0.324,0.311,0.169,0.102,west-southwest,2.5,No
2017/11/07,02:20,0.327,0.210,0.344,0.324,0.310,0.170,0.101,north-northwest,1.0,No
2017/11/07,02:30,0.328,0.210,0.344,0.326,0.310,0.169,0.101,-,CALM,No
2017/11/07,02:40,0.329,0.210,0.344,0.325,0.310,0.169,0.101,north,1.4,No
2017/11/07,02:50,0.327,0.211,0.344,0.326,0.311,0.169,0.101,north,1.4,No
2017/11/07,03:00,0.327,0.209,0.345,0.326,0.311,0.169,0.102,north-northwest,1.6,No
2017/11/07,03:10,0.328,0.209,0.344,0.324,0.311,0.169,0.101,north-northeast,1.4,No
2017/11/07,03:20,0.326,0.210,0.343,0.325,0.309,0.169,0.101,north-northeast,1.1,No
2017/11/07,03:30,0.327,0.210,0.344,0.325,0.311,0.170,0.101,northeast,1.4,No
2017/11/07,03:40,0.326,0.209,0.344,0.325,0.311,0.169,0.102,north-northeast,1.3,No
2017/11/07,03:50,0.326,0.210,0.343,0.324,0.311,0.169,0.101,north,1.0,No
2017/11/07,04:00,0.327,0.210,0.345,0.325,0.310,0.170,0.101,north-northeast,1.4,No
2017/11/07,04:10,0.328,0.210,0.345,0.324,0.309,0.168,0.100,north-northeast,0.8,No
2017/11/07,04:20,0.325,0.209,0.343,0.325,0.311,0.169,0.101,north-northeast,1.4,No
2017/11/07,04:30,0.327,0.210,0.344,0.325,0.311,0.170,0.100,-,CALM,No
2017/11/07,04:40,0.326,0.210,0.344,0.323,0.311,0.169,0.101,north-northeast,0.8,No
2017/11/07,04:50,0.326,0.209,0.344,0.325,0.310,0.169,0.101,-,CALM,No
2017/11/07,05:00,0.326,0.209,0.345,0.325,0.309,0.169,0.102,east-northeast,0.6,No
2017/11/07,05:10,0.326,0.211,0.344,0.325,0.311,0.169,0.101,east-northeast,1.3,No
2017/11/07,05:20,0.327,0.208,0.345,0.323,0.311,0.169,0.101,north-northeast,1.1,No
2017/11/07,05:30,0.327,0.208,0.345,0.326,0.310,0.169,0.101,north-northeast,0.6,No
2017/11/07,05:40,0.326,0.210,0.344,0.324,0.311,0.170,0.102,-,CALM,No
2017/11/07,05:50,0.326,0.209,0.344,0.325,0.310,0.169,0.101,-,CALM,No
2017/11/07,06:00,0.328,0.211,0.346,0.326,0.313,0.169,0.101,-,CALM,No
2017/11/07,06:10,0.327,0.210,0.345,0.324,0.310,0.169,0.101,east-southeast,0.8,No
2017/11/07,06:20,0.328,0.210,0.344,0.325,0.311,0.170,0.101,-,CALM,No
2017/11/07,06:30,0.327,0.210,0.345,0.324,0.312,0.170,0.101,southeast,1.0,No
2017/11/07,06:40,0.327,0.209,0.342,0.324,0.311,0.169,0.101,-,CALM,No
2017/11/07,06:50,0.328,0.209,0.346,0.324,0.310,0.170,0.102,south-southwest,1.5,No
2017/11/07,07:00,0.327,0.210,0.344,0.326,0.310,0.170,0.101,south-southwest,2.1,No
2017/11/07,07:10,0.327,0.210,0.344,0.325,0.311,0.170,0.102,south-southwest,1.7,No
2017/11/07,07:20,0.329,0.209,0.346,0.325,0.311,0.170,0.101,south-southwest,1.9,No
2017/11/07,07:30,0.326,0.211,0.344,0.325,0.311,0.169,0.100,southwest,1.8,No
2017/11/07,07:40,0.327,0.211,0.343,0.324,0.311,0.169,0.101,south-southwest,1.5,No
2017/11/07,07:50,0.327,0.211,0.345,0.325,0.310,0.168,0.101,south,1.6,No
2017/11/07,08:00,0.327,0.209,0.343,0.322,0.311,0.169,0.103,south,1.6,No
2017/11/07,08:10,0.327,0.211,0.344,0.326,0.311,0.170,0.101,south,0.9,No
2017/11/07,08:20,0.327,0.211,0.344,0.323,0.311,0.170,0.102,south,2.4,No
2017/11/07,08:30,0.327,0.210,0.344,0.325,0.313,0.169,0.101,south-southwest,1.8,No
2017/11/07,08:40,0.329,0.209,0.345,0.324,0.309,0.169,0.101,south-southeast,0.6,No
2017/11/07,08:50,0.326,0.209,0.344,0.322,0.313,0.169,0.101,south,1.5,No
2017/11/07,09:00,0.327,0.209,0.344,0.326,0.311,0.169,0.102,south,2.1,No
2017/11/07,09:10,0.327,0.209,0.343,0.322,0.312,0.169,0.101,south-southwest,2.9,No
2017/11/07,09:20,0.328,0.210,0.344,0.324,0.310,0.170,0.102,south-southwest,2.8,No
2017/11/07,09:30,0.325,0.210,0.345,0.325,0.313,0.170,0.102,south,3.0,No
2017/11/07,09:40,0.326,0.210,0.342,0.322,0.310,0.170,0.101,south,4.5,No
2017/11/07,09:50,0.323,0.210,0.345,0.325,0.311,0.169,0.101,south,3.2,No
2017/11/07,10:00,0.322,0.207,0.344,0.326,0.312,0.170,0.102,south,4.2,No
2017/11/07,10:10,0.324,0.210,0.346,0.322,0.308,0.169,0.101,south,4.3,No
2017/11/07,10:20,0.323,0.209,0.342,0.322,0.308,0.169,0.101,south-southeast,3.2,No
2017/11/07,10:30,0.322,0.208,0.345,0.327,0.313,0.170,0.102,south-southeast,3.3,No
2017/11/07,10:40,0.321,0.208,0.343,0.325,0.309,0.168,0.102,south-southeast,3.8,No
2017/11/07,10:50,0.323,0.211,0.346,0.323,0.308,0.170,0.101,south,4.5,No
2017/11/07,11:00,0.327,0.210,0.342,0.324,0.312,0.170,0.101,south,4.2,No
2017/11/07,11:10,0.326,0.207,0.345,0.325,0.312,0.169,0.101,south,3.5,No
2017/11/07,11:20,0.323,0.212,0.342,0.324,0.310,0.169,0.101,south,4.8,No
2017/11/07,11:30,0.322,0.210,0.343,0.322,0.308,0.169,0.101,south-southeast,3.8,No
2017/11/07,11:40,0.326,0.209,0.344,0.326,0.311,0.170,0.101,south,4.4,No
2017/11/07,11:50,0.328,0.210,0.343,0.326,0.313,0.169,0.101,south,5.3,No
2017/11/07,12:00,0.325,0.210,0.345,0.324,0.310,0.169,0.100,south,6.3,No
2017/11/07,12:10,0.323,0.209,0.343,0.322,0.307,0.169,0.101,south,5.9,No
2017/11/07,12:20,0.328,0.209,0.341,0.324,0.308,0.170,0.100,south,5.9,No
2017/11/07,12:30,0.327,0.210,0.344,0.327,0.313,0.168,0.101,south,4.8,No
2017/11/07,12:40,0.324,0.210,0.342,0.325,0.311,0.170,0.101,south,4.8,No
2017/11/07,12:50,0.325,0.209,0.341,0.323,0.310,0.171,0.101,south,6.3,No
2017/11/07,13:00,0.328,0.209,0.341,0.320,0.308,0.170,0.101,south,6.7,No
2017/11/07,13:10,0.324,0.210,0.345,0.326,0.311,0.170,0.100,south,7.8,No
2017/11/07,13:20,0.328,0.211,0.341,0.327,0.311,0.170,0.101,south,6.8,No
2017/11/07,13:30,0.328,0.209,0.340,0.323,0.310,0.170,0.100,south-southeast,4.2,No
2017/11/07,13:40,0.325,0.210,0.343,0.321,0.309,0.170,0.101,south,5.9,No
2017/11/07,13:50,0.329,0.210,0.344,0.325,0.313,0.169,0.101,south,7.1,No
2017/11/07,14:00,0.325,0.210,0.342,0.326,0.311,0.171,0.101,south,6.8,No
2017/11/07,14:10,0.327,0.208,0.347,0.324,0.311,0.170,0.100,south-southwest,7.5,No
2017/11/07,14:20,0.326,0.209,0.344,0.328,0.314,0.168,0.101,south,7.6,No
2017/11/07,14:30,0.326,0.209,0.344,0.326,0.310,0.169,0.101,south,4.8,No
2017/11/07,14:40,0.327,0.209,0.346,0.327,0.314,0.169,0.100,south,5.6,No
2017/11/07,14:50,0.326,0.212,0.343,0.326,0.311,0.170,0.101,south-southwest,4.2,No
2017/11/07,15:00,0.328,0.209,0.347,0.326,0.311,0.168,0.101,south,4.8,No
2017/11/07,15:10,0.327,0.210,0.342,0.327,0.313,0.168,0.100,south,5.1,No
2017/11/07,15:20,0.329,0.209,0.345,0.324,0.310,0.169,0.102,south,6.2,No
2017/11/07,15:30,0.326,0.211,0.345,0.326,0.313,0.170,0.100,south-southwest,6.8,No
2017/11/07,15:40,0.329,0.211,0.346,0.324,0.310,0.169,0.101,south,5.3,No
2017/11/07,15:50,0.326,0.211,0.345,0.327,0.313,0.170,0.100,south-southwest,4.4,No
2017/11/07,16:00,0.328,0.213,0.346,0.325,0.310,0.168,0.102,south,4.4,No
2017/11/07,16:10,0.327,0.209,0.344,0.326,0.313,0.170,0.100,south-southwest,4.5,No
2017/11/07,16:20,0.328,0.211,0.346,0.325,0.311,0.170,0.102,south,3.3,No
2017/11/07,16:30,0.326,0.211,0.345,0.327,0.312,0.169,0.101,south,1.4,No
2017/11/07,16:40,0.327,0.210,0.344,0.324,0.311,0.170,0.101,south-southwest,0.6,No
2017/11/07,16:50,0.327,0.211,0.346,0.326,0.313,0.170,0.101,south-southwest,1.8,No
2017/11/07,17:00,0.326,0.211,0.345,0.326,0.311,0.170,0.101,south-southwest,1.6,No
2017/11/07,17:10,0.328,0.211,0.346,0.328,0.314,0.169,0.101,south-southwest,1.9,No
2017/11/07,17:20,0.327,0.210,0.345,0.325,0.313,0.169,0.101,south-southwest,0.6,No
2017/11/07,17:30,0.329,0.211,0.343,0.326,0.311,0.170,0.101,-,CALM,No
2017/11/07,17:40,0.327,0.211,0.346,0.326,0.313,0.169,0.101,-,CALM,No
2017/11/07,17:50,0.328,0.210,0.344,0.329,0.312,0.170,0.102,-,CALM,No
2017/11/07,18:00,0.327,0.212,0.348,0.326,0.314,0.169,0.101,-,CALM,No
2017/11/07,18:10,0.328,0.210,0.343,0.325,0.311,0.170,0.101,-,CALM,No
2017/11/07,18:20,0.327,0.211,0.346,0.326,0.313,0.171,0.102,-,CALM,No
2017/11/07,18:30,0.326,0.210,0.344,0.326,0.312,0.170,0.102,-,CALM,No
2017/11/07,18:40,0.328,0.211,0.345,0.327,0.315,0.170,0.101,-,CALM,No
2017/11/07,18:50,0.327,0.211,0.345,0.326,0.311,0.171,0.101,-,CALM,No
2017/11/07,19:00,0.327,0.211,0.344,0.327,0.311,0.171,0.102,-,CALM,No
2017/11/07,19:10,0.327,0.210,0.345,0.326,0.312,0.170,0.102,-,CALM,No
2017/11/07,19:20,0.326,0.212,0.345,0.328,0.312,0.171,0.102,-,CALM,No
2017/11/07,19:30,0.329,0.210,0.345,0.327,0.313,0.170,0.102,-,CALM,No
2017/11/07,19:40,0.328,0.212,0.346,0.326,0.311,0.171,0.102,south-southwest,0.7,No
2017/11/07,19:50,0.330,0.210,0.348,0.327,0.313,0.170,0.101,south-southeast,0.6,No
2017/11/07,20:00,0.327,0.211,0.345,0.327,0.312,0.170,0.103,-,CALM,No
2017/11/07,20:10,0.328,0.212,0.347,0.328,0.312,0.170,0.103,west-southwest,0.8,No
2017/11/07,20:20,0.328,0.211,0.344,0.327,0.312,0.170,0.102,southwest,0.6,No
2017/11/07,20:30,0.326,0.211,0.345,0.326,0.312,0.171,0.102,-,CALM,No
2017/11/07,20:40,0.328,0.211,0.347,0.329,0.312,0.172,0.103,-,CALM,No
2017/11/07,20:50,0.329,0.210,0.345,0.327,0.311,0.170,0.102,south,0.9,No
2017/11/07,21:00,0.327,0.210,0.348,0.328,0.312,0.170,0.102,-,CALM,No
2017/11/07,21:10,0.328,0.210,0.345,0.326,0.312,0.171,0.102,south-southeast,1.0,No
2017/11/07,21:20,0.329,0.211,0.346,0.325,0.314,0.170,0.102,south-southwest,1.5,No
2017/11/07,21:30,0.326,0.212,0.347,0.328,0.311,0.170,0.102,west-southwest,2.1,No
2017/11/07,21:40,0.328,0.211,0.346,0.325,0.312,0.170,0.103,west-southwest,2.9,No
2017/11/07,21:50,0.329,0.212,0.346,0.327,0.312,0.170,0.103,west-southwest,3.1,No
2017/11/07,22:00,0.330,0.212,0.344,0.327,0.310,0.171,0.103,west-southwest,4.5,No
2017/11/07,22:10,0.328,0.211,0.347,0.327,0.313,0.170,0.102,southwest,3.0,No
2017/11/07,22:20,0.327,0.211,0.347,0.328,0.311,0.171,0.102,west-southwest,2.6,No
2017/11/07,22:30,0.329,0.211,0.345,0.326,0.310,0.170,0.103,west-southwest,2.0,No
2017/11/07,22:40,0.328,0.210,0.345,0.327,0.312,0.171,0.102,west-southwest,1.8,No
2017/11/07,22:50,0.330,0.210,0.344,0.326,0.312,0.169,0.102,west-southwest,1.8,No
2017/11/07,23:00,0.327,0.210,0.345,0.326,0.312,0.171,0.102,west-southwest,2.0,No
2017/11/07,23:10,0.328,0.210,0.344,0.327,0.312,0.171,0.101,west-southwest,1.5,No
2017/11/07,23:20,0.328,0.210,0.346,0.326,0.312,0.170,0.102,west-southwest,1.2,No
2017/11/07,23:30,0.326,0.210,0.345,0.325,0.311,0.170,0.101,west-southwest,1.1,No
2017/11/07,23:40,0.328,0.209,0.343,0.326,0.311,0.171,0.101,south,0.8,No
2017/11/07,23:50,0.327,0.210,0.345,0.325,0.311,0.171,0.102,south-southeast,0.9,No
